Flag for Germany Weather past 2 weeks in Lemgo, North Rhine-Westphalia, Germany

Now
63 °F

Overcast.


Feels Like: 63 °F
Forecast: 52 / 63 °F
Wind: 8 mph from Southwest

Location: Bad Lippspringe

Current Time: Jul 28, 2015 at 5:48:19 PM

Latest Report: Jul 28, 2015 at 5:00 PM


Visibility: 16 mi

Pressure: 29.71 "Hg

Humidity: 64%

Dew point: 51 °F

Location of LemgoLocation

Historic Weather in Lemgo — Graph

°F

Lemgo temperature yesterday

Maximum temperature yesterday: 65 °F (at 6:00 PM)
Minimum temperature yesterday: 55 °F (at 5:00 AM)
Average temperature yesterday: 60 °F

Past Weeks' High & Low Weather Summary

 TemperatureHumidityPressure
High88 °F (Jul 17, 4:00 PM)100% (Jul 16, 4:00 AM)30.13 "Hg (Jul 16, 4:00 AM)
Low51 °F (Jul 26, 7:00 AM)27% (Jul 17, 5:00 PM)29.50 "Hg (Jul 25, 11:00 AM)
Average66 °F77%29.90 "Hg
* Reported Jul 13 5:00 PM — Jul 28 5:00 PM, Lemgo, Weather by CustomWeather, © 2015

Note: Actual official high and low records may vary slightly from our data, if they occured in-between our weather recording intervals... More about our weather records

Advertising

Lemgo weather history for previous 24 hours

 ConditionsComfort  
Time TempWeatherWind HumidityBarometerVisibility
5:00 PM
Tue, Jul 28
63 °FOvercast.8 mph64%29.71 "Hg16 mi
4:00 PM63 °FPartly sunny.9 mph66%29.70 "Hg9 mi
3:00 PM64 °FOvercast.8 mph60%29.69 "Hg19 mi
2:00 PM62 °FOvercast.7 mph68%29.70 "Hg19 mi
1:00 PM61 °FOvercast.7 mph74%29.68 "Hg17 mi
12:00 PM60 °FOvercast.6 mph76%29.69 "Hg17 mi
11:00 AM60 °FOvercast.9 mph72%29.67 "Hg19 mi
10:00 AM58 °FOvercast.7 mph74%29.68 "Hg19 mi
9:00 AM57 °FOvercast.8 mph76%29.67 "Hg19 mi
8:00 AM57 °FOvercast.7 mph76%29.66 "Hg19 mi
7:00 AM56 °FOvercast.6 mph76%29.65 "Hg19 mi
6:00 AM56 °FOvercast.6 mph74%29.64 "Hg25 mi
5:00 AM56 °FOvercast.7 mph74%29.64 "Hg25 mi
4:00 AM57 °FPassing clouds.7 mph74%29.64 "Hg28 mi
3:00 AM58 °FOvercast.6 mph73%29.63 "Hg28 mi
2:00 AM59 °FPassing clouds.7 mph79%29.63 "Hg28 mi
1:00 AM60 °FPassing clouds.7 mph82%29.63 "Hg28 mi
11:00 PM
Mon, Jul 27
60 °FPassing clouds.5 mph87%29.62 "Hg19 mi
10:00 PM63 °FOvercast.3 mph78%29.60 "Hg22 mi
9:00 PM63 °FPassing clouds.3 mph78%29.59 "Hg31 mi
8:00 PM64 °FOvercast.5 mph78%29.59 "Hg25 mi
7:00 PM64 °FOvercast.6 mph82%29.59 "Hg17 mi
6:00 PM65 °FOvercast.8 mph73%29.57 "Hg25 mi
5:00 PM64 °FOvercast.9 mph77%29.57 "Hg19 mi
Weather by CustomWeather, © 2015

See weather overviewHow to use our weather pages